Lapse_Rate
6.4 6.2 6.5 7.0 6.7 7.5 7.7 7.2 7.2 6.5 6.1 6.2 6.5 6.3 5.8 5.4 5.5 5.3 5.4 5.3 4.9 5.5 5.7 5.4 5.9 5.7 5.5 5.6 6.0 5.9 6.5 6.3 6.1 5.8 5.6 5.8 5.8 5.8 5.7 5.9 5.8 5.6 5.8 5.6
6.1 6.3 7.0 7.1 7.1 7.5 7.5 7.4 7.4 6.4 6.1 6.1 6.3 6.0 5.3 5.2 5.6 5.5 5.3 5.3 4.9 5.4 5.6 5.7 5.8 5.7 5.7 5.7 6.3 6.0 6.3 6.5 6.0 5.6 5.7 5.9 6.1 6.0 6.0 5.7 5.7 5.9 5.9 5.7
6.2 7.5 6.6 6.7 7.1 7.3 7.8 7.6 7.3 7.5 6.6 6.2 6.0 5.4 5.6 5.2 5.3 5.3 5.2 5.2 4.8 5.6 5.8 5.8 5.9 5.9 5.9 6.1 6.3 6.1 6.0 6.1 6.3 6.3 6.1 6.0 5.9 6.0 6.1 5.8 5.7 5.8 5.9 6.0
6.6 7.6 6.8 6.7 7.0 7.4 7.5 8.1 7.7 7.8 7.1 6.2 6.4 6.2 6.3 5.3 5.1 5.2 5.3 5.5 5.3 5.1 5.7 6.0 6.1 6.0 5.9 6.0 6.1 6.1 6.1 6.4 6.3 6.3 6.3 6.4 6.2 5.9 6.1 6.1 5.9 5.8 5.8 5.9
7.4 7.6 7.3 7.0 7.0 7.9 8.0 8.4 8.5 8.0 7.4 6.8 6.6 6.4 6.4 5.4 5.3 5.3 5.1 5.3 5.7 5.2 5.6 6.1 6.3 6.1 5.9 5.6 5.9 6.0 6.1 6.4 6.5 6.3 6.1 6.1 6.3 6.1 6.0 6.2 6.3 6.1 5.9 5.9
7.1 7.4 7.5 7.8 7.9 8.0 8.6 8.2 7.9 7.5 7.3 6.2 7.0 6.2 5.8 6.3 6.2 6.1 5.4 5.3 5.7 5.4 5.6 5.7 6.4 6.0 5.7 5.5 5.6 6.0 6.0 6.1 6.5 6.4 6.3 6.2 6.1 6.2 6.3 6.2 6.1 6.2 6.1 6.1
7.8 7.7 7.8 7.8 7.9 8.4 8.6 8.8 7.4 6.7 6.4 5.9 6.8 6.1 6.6 6.6 6.7 6.5 6.2 5.7 5.8 5.7 5.9 5.3 5.7 6.0 5.9 5.6 5.5 5.6 6.1 6.1 6.1 6.4 6.4 6.4 6.4 6.0 6.1 6.0 5.9 6.1 6.0 6.1
7.6 7.9 8.2 8.2 8.1 8.6 9.0 9.3 8.5 6.7 5.8 6.7 7.6 6.3 7.2 6.8 6.4 6.1 6.0 5.0 5.5 5.6 5.0 5.4 5.3 6.2 6.0 5.6 5.6 5.6 5.7 6.1 5.9 6.1 6.2 6.3 6.2 5.9 6.0 5.9 5.9 6.1 6.1 6.2
7.8 7.9 8.5 8.4 8.4 8.8 9.0 8.9 8.7 8.4 7.9 7.7 6.7 5.6 6.4 6.5 6.3 6.5 6.0 6.3 5.7 5.5 4.9 5.2 5.1 5.8 5.9 5.4 5.6 5.4 5.5 5.8 5.5 5.7 6.1 6.0 6.1 5.7 5.8 5.7 6.1 6.0 6.2 6.0
8.0 7.8 8.2 8.8 8.8 8.6 8.8 8.7 8.5 8.5 7.2 7.7 6.5 6.4 5.8 5.7 5.6 5.5 6.0 5.9 6.1 5.2 5.0 5.3 5.1 5.5 6.1 6.0 5.6 5.3 5.3 5.8 5.6 5.6 5.8 5.6 5.5 5.7 5.7 5.9 6.1 6.0 6.0 6.1
8.4 8.1 8.4 8.8 9.1 8.5 8.2 8.7 8.4 8.2 8.4 6.9 6.2 6.4 6.5 6.1 6.0 5.6 5.7 5.3 5.6 5.8 4.9 5.3 5.6 5.6 6.0 6.0 5.9 5.5 5.4 5.9 6.3 6.0 6.5 6.5 6.1 5.6 5.6 5.9 6.0 5.9 6.0 6.3
8.2 8.0 8.1 8.4 8.8 8.2 8.1 8.6 8.4 8.2 8.1 7.9 6.9 5.9 6.0 6.2 5.9 5.6 5.5 5.2 5.3 6.1 6.5 6.0 5.3 5.8 5.8 5.6 5.7 5.6 5.5 5.5 5.5 5.8 5.9 6.3 6.4 6.3 5.9 5.7 6.1 6.1 6.3 6.2
8.1 7.6 8.2 8.4 8.5 8.3 8.4 8.6 8.5 8.4 8.3 7.5 6.6 6.3 6.2 5.5 5.7 6.6 5.2 5.6 5.9 5.6 5.9 6.4 6.1 6.1 6.1 5.9 5.5 5.8 5.7 5.2 5.2 5.5 5.4 5.8 6.1 6.2 6.2 5.7 6.0 6.2 6.0 6.3
8.2 7.7 7.5 7.0 7.2 7.3 7.8 8.5 8.5 8.5 8.4 7.6 7.4 6.1 5.7 5.4 5.8 6.0 5.8 5.4 5.5 5.1 5.4 6.2 6.1 6.0 6.0 6.1 5.9 5.7 5.5 5.2 5.2 6.0 5.2 5.6 5.7 6.1 6.1 5.9 6.0 6.4 6.2 6.2
8.2 7.8 7.7 7.4 7.5 7.3 7.6 8.1 8.2 8.4 8.4 8.3 7.4 7.7 6.3 5.6 5.6 5.6 5.6 5.5 5.5 5.6 5.6 5.8 6.1 6.1 6.3 6.4 6.4 6.4 5.9 5.9 6.0 6.0 5.5 5.9 6.1 5.9 6.0 5.6 5.6 6.1 6.7 6.5
7.8 8.1 8.0 8.0 7.4 7.6 7.8 7.9 7.9 8.5 8.3 8.2 7.6 6.9 6.4 5.7 5.4 5.8 5.5 5.5 5.9 5.9 6.3 6.7 7.0 6.9 6.6 6.4 6.4 6.6 6.6 6.5 5.9 6.2 5.5 5.6 5.4 5.7 5.7 5.8 5.7 5.6 5.9 6.1
7.5 7.9 7.6 8.2 7.5 7.7 8.2 8.1 8.5 8.4 8.0 8.3 7.5 7.8 6.4 5.9 5.5 5.4 5.4 5.5 5.6 5.9 6.8 7.1 7.2 7.2 7.2 7.1 6.6 6.7 6.8 6.5 6.3 6.2 5.7 5.6 5.8 5.6 5.6 5.7 5.6 5.6 5.8 6.0
8.0 8.1 8.4 8.4 7.5 7.1 7.8 8.5 8.7 8.9 7.8 7.4 7.3 7.5 7.1 6.4 5.9 5.7 5.5 5.5 5.3 5.8 7.0 7.1 7.4 7.5 7.5 7.3 7.3 7.1 6.9 6.7 6.4 6.2 6.1 5.6 5.5 5.7 5.7 6.2 6.0 5.7 5.8 5.9
7.8 7.9 8.0 8.1 7.0 7.7 7.8 8.2 8.5 9.0 7.5 7.1 7.3 7.1 6.1 5.6 5.7 5.7 5.5 5.5 5.8 6.3 6.6 6.7 6.5 6.8 6.7 7.1 7.1 6.6 6.2 6.0 5.8 5.9 5.9 5.9 5.8 5.9 5.8 5.5 5.6 5.3 5.4 5.4
7.7 7.5 7.8 7.9 7.8 8.0 7.8 8.2 8.2 8.3 7.3 6.7 6.6 6.8 7.0 6.3 6.1 5.7 5.8 5.9 6.3 6.1 6.2 6.3 6.1 6.2 6.2 6.3 6.1 5.9 5.7 5.8 5.9 5.6 5.6 5.9 5.7 5.6 5.8 6.0 5.8 5.8 5.6 5.8
8.0 7.6 7.5 7.6 7.8 7.7 7.5 7.7 8.2 8.2 7.3 6.7 6.7 6.8 6.8 7.2 7.2 7.2 6.6 6.2 5.9 6.2 6.0 6.2 6.0 5.7 5.6 5.7 5.9 5.8 5.7 5.8 5.8 6.0 5.8 5.7 5.8 5.7 5.5 5.6 5.7 5.9 5.8 6.2
7.8 7.7 7.7 7.7 7.6 7.4 7.5 7.8 8.3 8.3 7.9 7.4 7.2 6.8 6.7 6.7 6.8 7.0 7.1 7.4 6.9 6.5 6.4 6.4 6.2 6.1 5.8 5.7 5.6 5.7 5.8 5.8 5.9 6.0 6.2 6.0 6.0 6.0 6.1 6.0 5.9 5.7 5.8 5.7
7.8 7.8 7.7 7.6 7.3 6.7 7.1 7.6 7.9 8.0 7.8 7.5 7.0 6.8 6.7 6.7 6.7 6.8 6.8 6.4 6.4 6.6 6.7 6.6 6.3 6.1 5.9 5.8 5.6 5.7 5.8 6.0 6.1 6.2 6.2 6.1 6.1 6.1 6.2 6.2 6.2 6.1 6.0 5.9
7.7 7.8 7.7 7.5 7.3 7.2 7.0 7.3 7.8 7.9 7.7 7.3 7.1 7.0 7.0 6.9 6.7 6.7 6.8 6.7 6.4 6.4 6.1 6.1 6.0 6.2 6.1 5.9 5.8 6.0 6.1 6.1 6.3 6.4 6.7 6.8 6.7 6.4 6.1 6.0 6.0 6.0 5.9 5.9
7.7 7.7 7.7 7.4 7.1 6.9 6.9 6.9 7.4 7.6 7.6 7.5 7.2 6.8 6.8 6.8 6.7 6.4 6.4 6.4 6.3 6.4 6.0 6.1 6.5 6.4 6.2 6.2 6.2 6.2 6.2 6.3 6.2 6.1 6.1 6.2 6.4 6.5 6.2 5.9 6.0 6.1 6.1 6.0
7.4 7.3 7.5 7.5 7.2 7.0 6.8 6.9 6.8 6.9 7.1 7.2 7.0 6.9 6.9 6.9 6.8 6.4 6.2 6.1 6.2 6.1 6.1 6.3 6.1 6.0 6.1 6.2 6.2 6.2 6.2 6.2 6.2 6.2 6.2 6.2 6.2 6.3 6.4 6.3 6.0 5.8 5.8 5.7
Wind_Speed
2 4 5 10 5 6 2 8 3 7 9 9 4 6 9 5 11 15 13 8 12 18 18 18 19 19 15 10 8 8 8 8 6 2 2 2 2 1 0 6 7 9 10 8
6 5 10 7 7 7 5 7 4 11 8 3 5 7 5 6 11 16 14 6 12 15 14 15 19 17 15 11 10 8 8 9 6 4 2 3 3 2 1 3 5 8 9 9
6 11 7 5 9 8 9 6 6 7 10 12 6 3 2 1 13 11 11 7 7 21 18 15 18 16 13 12 12 12 9 8 6 5 4 3 2 3 1 1 2 5 10 9
6 15 10 7 10 7 9 6 12 18 6 4 6 3 5 7 9 17 16 9 5 14 18 18 17 16 15 12 13 13 9 8 6 7 3 5 4 4 3 3 3 4 10 7
9 3 7 8 12 9 11 7 14 15 4 7 5 3 3 13 10 13 15 11 3 6 13 19 19 18 15 14 14 13 10 8 7 7 6 4 4 3 2 3 4 4 4 9
8 10 6 11 12 12 11 14 10 5 4 1 9 4 4 10 13 13 12 12 5 5 9 6 19 18 15 13 12 12 10 8 7 6 7 8 7 6 4 4 4 3 2 3
7 7 5 6 7 3 7 6 2 4 3 6 10 5 5 8 10 12 16 17 4 4 8 7 13 17 14 15 14 13 11 7 8 8 7 8 7 7 7 5 4 5 3 2
3 8 3 3 7 8 4 7 6 4 4 5 5 6 2 3 5 9 6 9 8 4 4 5 2 14 16 17 16 14 12 8 9 8 7 7 7 4 5 5 4 4 4 4
3 5 5 3 5 8 5 2 3 5 2 4 5 3 5 5 6 5 4 5 7 7 4 7 6 6 6 7 13 14 12 8 4 6 7 7 6 6 6 6 4 4 4 3
0 4 3 7 3 3 8 4 4 3 4 4 2 8 7 10 9 7 7 6 8 5 2 3 5 8 11 7 2 8 9 9 7 6 4 2 6 6 4 4 6 6 6 5
2 2 8 0 2 4 3 3 5 3 4 5 4 0 5 13 12 10 6 6 7 9 3 5 4 5 12 7 4 8 9 10 7 6 3 1 4 6 6 5 6 7 5 6
2 3 1 4 9 4 4 4 5 4 4 3 4 3 7 13 11 11 6 2 5 5 8 7 7 6 10 8 5 5 7 9 5 4 4 5 3 6 6 6 6 6 7 6
3 4 4 10 8 9 5 3 5 3 3 1 5 4 8 10 11 14 8 6 6 6 9 6 7 6 7 8 3 3 5 10 5 2 5 6 4 2 5 6 6 6 5 6
5 3 5 5 6 5 8 6 3 5 4 3 2 13 11 13 10 13 10 8 6 7 10 8 6 6 5 6 6 3 4 9 3 3 5 7 6 5 6 3 5 6 6 6
5 4 4 4 9 10 7 5 11 5 7 5 14 15 17 15 14 13 11 11 10 8 10 10 8 6 7 6 6 5 4 5 4 5 4 4 3 7 8 7 7 7 4 6
3 2 3 2 13 12 5 9 10 11 10 11 14 14 16 16 15 14 12 12 11 11 11 10 9 8 7 6 7 7 6 6 5 6 5 4 3 9 7 7 7 8 7 5
4 3 3 3 5 8 5 6 3 5 6 20 11 10 17 18 16 16 14 13 13 12 11 11 9 7 7 6 6 8 6 6 6 6 6 5 5 7 5 5 7 7 8 5
3 3 2 1 8 5 3 5 3 8 13 7 16 22 18 16 15 13 14 13 10 9 11 9 8 8 10 9 8 5 7 9 10 10 9 9 6 5 5 6 7 8 6 6
5 4 2 4 4 4 3 6 7 3 5 7 21 19 17 15 16 11 15 16 14 8 8 7 8 8 9 11 9 10 9 9 10 8 8 8 8 9 8 6 5 3 4 4
7 7 4 1 1 3 1 5 8 2 3 5 21 20 21 20 12 9 16 18 14 13 11 9 8 8 10 7 7 9 7 7 7 7 6 6 6 6 6 6 6 2 3 3
3 3 4 1 1 2 3 9 4 5 5 8 13 19 19 12 4 14 16 12 16 15 13 9 9 8 6 6 7 8 7 7 5 6 6 7 7 6 4 4 2 4 4 5
3 3 0 2 2 2 6 6 5 3 7 8 7 6 8 12 16 15 14 14 14 15 11 11 10 7 6 7 9 7 7 5 6 6 6 6 6 5 5 6 6 6 6 6
2 5 4 5 4 5 5 5 3 3 7 4 9 9 17 18 15 14 12 11 11 12 8 8 10 8 6 7 7 7 2 4 6 6 7 7 7 6 6 6 6 5 5 4
7 2 3 4 6 3 5 5 5 5 9 9 10 10 11 12 10 10 10 11 12 9 9 7 9 8 6 5 6 5 4 5 6 6 6 6 6 8 7 5 4 4 5 5
3 4 2 2 5 4 7 3 8 7 8 8 7 7 9 12 9 11 8 8 10 9 7 9 9 7 6 5 6 5 4 5 5 5 5 6 5 6 6 6 4 4 5 2
1 4 3 3 5 4 3 5 2 7 6 8 8 7 8 8 12 8 10 10 11 11 10 9 7 7 6 6 5 4 4 5 5 5 4 4 4 4 5 5 7 9 8 13
Wind_Direction
247 78 203 238 206 229 323 324 137 115 157 167 179 128 143 162 160 169 222 257 172 162 159 146 153 154 159 152 143 152 145 154 145 102 144 102 210 164 251 223 164 160 147 149
13 231 228 233 253 256 253 218 137 103 44 141 126 96 83 176 175 174 207 315 170 158 161 147 147 158 160 151 151 158 171 156 168 155 144 154 157 211 188 200 182 181 165 161
164 240 224 235 268 276 261 178 206 141 107 47 110 127 118 10 162 187 243 298 307 158 159 155 154 162 154 147 158 164 173 161 157 132 118 82 77 50 95 190 194 206 180 177
221 255 243 229 249 214 257 209 178 150 152 161 234 214 192 182 166 195 218 258 307 183 163 161 157 160 164 161 161 160 168 150 147 143 152 163 158 154 188 185 195 188 183 177
239 256 224 238 233 210 244 152 145 136 94 120 212 108 267 161 194 199 220 251 237 328 177 161 163 166 171 158 169 167 166 153 158 159 168 159 140 144 156 175 167 184 199 180
249 267 195 224 250 222 125 99 62 53 97 230 187 150 201 184 196 184 204 262 226 322 341 212 168 167 172 166 163 165 167 164 167 159 158 161 165 168 148 171 164 183 194 172
317 275 247 209 257 358 156 122 69 32 33 234 132 139 247 201 162 178 190 210 219 306 314 316 179 171 166 171 172 167 164 167 167 165 162 175 177 186 180 173 168 164 147 198
248 322 224 224 185 199 161 153 158 147 184 243 115 201 228 66 80 89 90 86 30 314 224 136 193 183 172 175 175 170 168 165 167 171 172 180 174 185 204 178 165 188 172 176
220 261 310 236 245 148 264 93 160 140 32 122 124 65 63 97 67 92 130 109 74 42 41 172 77 84 104 177 178 176 169 150 170 179 164 179 189 185 188 189 183 187 193 190
74 291 286 300 119 16 136 171 54 3 148 217 254 160 155 169 141 111 75 62 87 85 124 50 111 82 76 33 121 117 114 104 105 76 57 284 205 202 209 177 218 202 204 191
28 90 295 345 98 152 19 73 72 111 135 169 141 201 286 164 136 109 83 99 105 107 182 118 92 87 95 71 80 111 109 107 90 83 53 96 268 238 200 198 213 203 179 190
340 141 358 260 287 325 147 140 113 121 272 105 105 82 80 111 121 121 128 93 96 96 90 77 70 96 95 100 52 103 110 91 79 55 21 357 278 229 212 206 203 200 186 200
331 3 25 349 358 4 9 360 140 138 103 93 115 150 129 119 133 123 115 101 97 96 84 68 67 61 95 111 141 77 101 94 70 316 59 12 331 295 228 208 199 195 210 201
85 75 114 151 218 240 294 338 339 108 102 127 143 136 147 139 139 123 120 118 104 94 90 82 62 70 93 122 123 128 105 99 133 77 52 43 11 44 41 14 251 192 211 210
117 136 125 251 311 334 252 337 326 160 161 131 170 148 146 146 140 128 126 130 125 119 105 95 89 79 75 91 103 131 90 81 87 91 68 62 354 49 43 48 20 339 225 228
15 218 117 4 320 331 341 356 22 91 85 70 120 120 139 138 130 132 135 135 123 116 106 103 97 89 79 75 95 90 73 63 59 69 57 53 20 56 40 32 41 11 350 329
72 95 82 227 334 323 17 340 17 45 139 140 151 159 145 144 143 144 144 137 127 129 115 107 94 73 61 68 77 82 79 83 72 70 58 58 56 74 44 35 55 30 344 323
96 80 85 167 49 312 258 328 9 115 155 126 116 142 145 143 138 136 143 135 111 107 111 100 89 73 56 49 45 65 58 55 52 45 33 24 24 44 71 52 45 38 347 311
118 105 67 137 177 270 27 2 334 89 29 133 131 137 139 136 120 112 123 120 115 107 104 96 93 86 67 60 58 61 48 50 45 35 30 21 21 20 12 5 26 61 291 318
75 80 110 72 148 184 313 293 330 110 36 166 138 147 148 146 138 154 137 123 108 109 107 97 81 69 68 64 78 71 52 46 34 18 13 11 13 13 17 9 353 292 276 283
28 20 123 113 229 317 304 327 331 101 209 156 162 156 157 154 155 137 131 121 118 124 120 110 96 94 96 82 77 62 54 44 17 18 10 3 358 347 347 329 296 310 319 318
130 123 235 75 81 323 326 8 92 235 6 150 126 125 113 120 118 126 125 126 123 125 123 115 108 100 89 85 85 67 45 355 18 20 13 355 350 346 342 340 329 338 347 345
1 169 171 149 206 262 334 93 68 126 107 46 103 122 129 129 134 136 138 128 121 125 122 114 113 101 76 82 92 85 38 39 24 15 358 349 340 338 337 341 336 339 346 344
339 44 100 75 328 2 79 70 76 100 106 109 115 123 128 125 131 131 133 136 130 130 119 116 106 98 91 83 87 99 49 39 38 21 359 349 353 348 346 345 347 341 341 342
223 5 359 43 13 1 8 60 115 94 116 123 136 137 145 139 143 137 134 128 127 124 115 114 118 122 126 105 88 80 63 48 25 11 359 353 351 341 334 339 326 334 318 325
311 170 124 185 227 188 282 334 122 117 134 147 138 125 147 158 162 152 149 141 137 129 125 119 130 132 140 116 104 75 47 48 37 14 355 343 338 340 357 352 344 343 343 331